Location: Newark
(43.0000°N, 1.6781°W)
Time: 10:51:00
(UTC+00:00)

Explorer 7 - Pass Details

Date: 22 April 2021
Orbit: 484 x 677 km, 50.3° (Epoch: 07 May)

Event Time Altitude Azimuth Distance (km) Brightness Sun altitude
Rises 22:22:10 0° 292° (WNW) 2,713 11.1 -29.7°
Reaches altitude 10° 22:24:32 10° 303° (WNW) 1,854 10.2 -29.9°
Enters shadow 22:27:54 31° 354° (N) 1,036 8.6 -30.2°
Maximum altitude 22:28:21 32° 7° (N) 1,024 - -30.2°
Drops below altitude 10° 22:32:23 10° 70° (ENE) 1,965 - -30.6°
Sets 22:34:58 0° 81° (E) 2,905 - -30.8°
